Theta_e
318 318 319 317 312 311 311 313 320 326 327 327 327 327 325 324 324 324 324 323 322 321 322 323 323 323 321 320 320 321 321 323 323 324 325 324 325 325 327 327 325 324 317 313 313 313 316 315 312 311 312 315 317 319 316 319 324 325 329 328 327 330 329 330 327 321 323 326 322 320 322 322 319 318 317 320 326 325 331 337 334 335 335 331 331 332 335 336
317 318 318 318 314 313 313 311 316 324 327 327 326 327 326 325 325 325 325 324 323 322 323 323 323 323 323 322 322 322 321 322 323 323 324 324 324 325 326 327 326 326 322 315 312 314 318 317 312 312 314 315 315 317 319 319 320 327 331 326 328 335 332 325 321 318 321 323 321 320 321 321 320 319 318 323 325 326 333 336 336 343 338 331 333 334 335 335
316 317 318 318 317 316 315 310 312 321 326 327 327 327 326 325 326 326 326 325 324 323 323 323 323 324 323 323 323 322 322 323 323 324 324 324 324 324 326 327 326 326 323 316 312 314 316 315 313 314 315 314 315 316 321 319 317 327 328 323 332 336 328 319 315 315 318 320 320 320 320 321 320 318 318 323 324 324 332 339 342 346 338 335 334 333 334 334
315 316 316 317 318 317 316 312 311 319 324 327 327 327 327 326 326 327 326 326 325 324 323 323 323 323 323 322 323 323 322 323 324 323 323 323 324 324 325 327 326 325 322 315 313 314 314 313 315 317 315 313 316 317 319 319 317 320 321 324 331 326 320 319 315 314 316 317 319 319 320 320 318 317 317 321 324 323 325 334 343 343 336 335 334 332 333 333
314 315 315 316 317 316 317 314 312 317 322 326 327 327 327 326 326 327 327 326 326 325 323 323 323 322 323 322 323 322 322 327 326 322 323 323 323 323 324 326 327 323 319 316 312 314 314 313 316 320 321 317 317 320 319 318 318 317 318 324 326 319 316 319 317 316 316 316 318 319 320 319 317 316 318 321 323 322 320 325 335 337 334 334 333 333 332 332
314 314 314 313 314 314 315 313 312 315 319 324 327 326 327 327 327 326 327 327 326 325 323 323 322 322 323 322 323 322 323 329 325 320 324 324 323 323 322 325 326 321 317 317 314 314 315 315 317 322 330 330 321 320 318 314 316 319 319 320 321 317 315 318 318 317 316 317 319 319 319 318 317 316 316 320 320 320 319 323 333 335 333 334 333 332 333 332
313 313 313 312 312 312 313 313 311 312 316 323 326 326 327 327 327 327 327 327 326 325 324 323 322 322 323 322 323 322 323 326 320 320 323 323 324 323 322 324 325 322 317 316 317 319 321 318 317 320 330 334 323 317 314 311 314 317 318 318 318 315 315 317 317 316 317 319 319 317 318 318 319 319 316 318 320 320 316 320 331 333 332 333 333 332 333 332
312 313 314 314 313 312 313 314 312 311 316 322 326 326 326 327 327 327 327 327 326 325 324 323 322 322 323 323 323 324 324 323 320 320 321 322 324 323 322 323 325 322 316 317 318 321 324 320 316 318 327 330 323 317 313 312 316 320 319 317 316 315 316 316 315 316 316 317 318 317 318 318 318 318 316 317 318 319 315 319 331 333 332 333 333 333 332 332
312 313 314 314 314 314 313 314 313 312 316 322 325 326 326 327 327 327 327 327 326 325 324 323 322 322 323 322 323 325 325 323 321 321 321 322 323 323 323 323 326 323 317 317 318 318 322 324 321 318 322 325 321 317 314 311 317 324 322 317 314 315 316 314 314 315 315 315 316 318 318 316 316 314 316 318 317 319 316 323 335 334 333 334 333 333 332 331
312 313 313 313 313 313 313 314 313 312 315 320 324 326 326 327 327 327 327 327 326 326 325 323 323 323 323 322 323 326 325 322 322 321 322 322 323 324 324 323 325 324 318 317 318 317 321 326 320 315 319 322 320 318 314 311 316 320 318 314 313 314 315 314 314 314 315 314 315 318 317 315 315 314 317 318 316 321 319 326 335 335 335 334 333 333 332 332
312 312 312 311 310 311 313 314 314 313 314 318 322 326 326 326 327 327 327 327 326 326 324 324 324 323 323 322 324 325 323 322 323 322 322 323 324 324 324 323 324 323 318 316 317 317 319 319 314 318 327 323 319 319 314 312 314 315 315 315 314 314 314 313 314 315 314 313 315 317 315 314 315 315 319 317 316 324 325 328 334 336 335 334 334 333 331 331
311 312 312 311 309 308 311 313 314 314 314 315 319 324 326 326 327 327 327 326 326 325 324 324 324 323 323 322 324 324 321 323 323 322 322 323 325 324 323 324 324 324 320 317 317 318 318 314 313 325 331 322 320 320 314 311 313 314 316 316 316 314 314 314 313 315 314 313 315 316 315 314 315 316 318 317 317 326 328 329 333 335 335 334 334 333 331 331
310 311 311 311 310 308 309 312 314 314 313 314 316 321 326 326 326 327 326 326 326 326 325 324 324 323 323 323 323 321 320 322 322 323 323 324 325 324 323 323 325 325 323 319 317 318 318 314 314 321 322 319 319 316 313 311 311 314 315 316 319 315 316 317 313 314 314 313 315 314 316 317 316 315 315 316 318 325 329 328 331 333 334 334 333 333 332 330
310 311 310 311 311 308 309 312 314 314 313 313 313 318 325 326 326 326 326 327 326 326 325 324 324 322 323 323 321 321 320 319 322 323 323 325 324 323 323 323 324 323 321 318 317 317 316 314 314 314 314 315 314 310 310 311 312 314 312 315 319 317 319 319 312 314 314 313 314 312 315 318 317 315 314 315 317 324 330 327 327 329 331 333 333 332 332 330
309 310 310 311 310 308 309 312 314 314 314 313 311 316 325 325 326 327 326 327 326 325 324 323 322 321 323 322 318 321 321 320 322 323 324 325 323 321 319 319 320 318 316 316 315 315 315 313 312 312 312 312 310 310 310 310 313 314 312 314 316 316 321 321 313 314 315 313 313 311 314 317 316 316 314 314 315 320 326 326 325 326 327 329 331 331 331 330
309 309 309 310 310 309 309 312 315 315 315 315 311 317 325 325 325 326 326 327 326 325 323 321 320 321 325 322 317 319 321 322 322 323 325 324 324 322 318 317 318 316 315 314 314 314 314 312 312 312 312 310 309 310 311 312 314 314 313 316 318 315 318 318 313 314 315 314 312 312 315 317 316 315 313 312 313 315 319 322 322 322 323 325 328 329 330 329
309 310 310 310 310 310 309 312 315 315 316 314 312 319 325 324 325 326 326 327 326 324 321 319 318 322 324 317 316 320 319 320 321 323 324 323 325 323 318 317 316 314 313 312 314 313 311 312 311 311 311 310 310 310 312 312 313 314 313 316 319 315 314 316 315 314 314 314 313 312 314 317 317 316 312 311 312 313 315 317 318 319 319 320 323 325 326 327
310 311 311 310 311 311 310 314 315 315 316 313 312 321 325 324 325 325 325 325 323 320 320 319 319 325 325 315 316 320 318 317 319 321 322 321 324 322 317 315 311 311 312 312 314 312 310 311 311 312 311 310 310 310 312 314 317 317 314 314 316 314 313 315 316 314 313 313 314 313 313 314 316 315 313 311 311 313 313 313 314 316 316 317 319 323 324 325
310 311 312 311 313 311 310 315 315 316 315 312 314 322 325 324 325 325 324 322 321 321 322 320 321 326 325 317 315 317 316 317 318 318 317 318 321 319 315 313 310 311 313 314 314 312 311 311 311 312 311 311 310 308 311 317 319 317 314 313 315 315 314 315 317 315 312 313 314 314 313 313 314 313 314 313 312 312 313 312 312 313 314 314 316 320 322 324
310 311 312 312 313 311 312 315 315 316 314 313 318 323 324 325 326 325 321 319 320 321 321 321 322 320 317 315 313 314 316 316 316 313 313 317 319 316 313 312 312 313 315 315 315 312 311 312 312 313 312 311 310 309 310 313 313 313 313 313 314 315 314 316 318 314 312 314 313 314 313 313 313 314 314 312 312 313 313 313 312 311 313 314 315 317 321 323
311 312 312 313 313 311 314 316 316 316 313 314 320 323 325 326 328 325 320 320 320 319 319 319 321 317 313 313 311 312 314 313 313 311 312 317 318 316 314 312 313 315 315 314 314 312 311 313 312 312 312 311 310 311 310 310 310 310 313 315 313 314 314 314 316 314 312 313 315 315 313 313 313 314 313 311 312 314 314 313 313 311 311 312 314 315 317 320
314 314 313 314 313 313 316 316 316 315 314 317 322 323 324 324 325 323 322 323 320 317 318 318 320 319 312 311 312 313 313 312 312 310 311 314 316 317 315 313 314 314 313 312 313 311 312 314 312 311 312 311 310 311 309 310 310 310 316 317 315 315 314 314 315 314 312 313 318 317 314 314 314 313 312 311 313 314 313 313 313 312 311 310 312 313 314 316
317 316 315 315 314 315 317 316 315 315 317 320 321 322 322 320 320 320 322 324 321 318 318 318 321 318 312 311 312 313 312 312 312 310 310 312 315 317 315 315 316 313 312 312 313 313 312 313 311 311 311 310 311 311 310 310 310 312 315 316 317 317 315 314 314 314 312 313 317 317 315 316 316 315 315 313 313 313 312 313 312 312 312 311 311 311 313 315
317 317 316 316 316 317 317 316 316 316 318 321 321 321 320 318 320 320 321 323 322 320 318 318 319 316 311 311 313 314 313 312 312 310 309 312 315 315 315 316 316 313 312 312 313 313 312 312 311 311 310 310 311 310 310 310 310 313 315 316 319 319 316 315 315 314 313 313 317 315 314 319 320 316 317 314 312 311 312 312 312 312 312 312 311 311 313 314
317 317 317 317 317 317 316 316 316 317 319 320 321 320 318 318 319 319 321 323 323 321 318 317 318 317 312 311 314 315 314 311 311 310 309 312 314 314 315 315 314 314 313 312 312 312 312 311 311 311 310 311 311 311 312 312 311 313 316 318 322 322 318 317 317 316 314 314 316 313 313 326 328 321 320 316 311 311 311 312 313 312 311 311 311 312 312 313
317 317 317 317 317 317 317 317 316 317 319 319 320 319 318 318 319 318 322 325 324 320 318 319 319 318 313 312 313 314 317 314 310 309 309 312 314 314 314 312 313 314 312 310 311 313 313 310 310 311 310 312 312 311 312 313 312 313 316 319 323 325 322 320 318 317 318 315 315 314 315 322 324 322 325 320 315 315 312 312 314 312 311 311 310 311 311 311
318 318 318 317 317 317 318 317 315 316 319 319 319 317 318 318 318 318 323 326 325 320 319 320 319 318 313 312 312 317 323 317 309 309 310 312 312 312 314 313 312 311 310 310 312 314 313 310 311 312 311 312 312 311 312 313 312 314 320 323 323 323 324 324 319 318 321 315 316 323 320 315 317 320 324 318 314 318 316 314 315 313 311 311 310 310 310 311
318 317 317 317 317 317 317 318 316 316 318 318 318 317 318 318 318 318 323 327 325 318 319 320 317 314 312 313 314 316 317 313 311 311 309 310 311 311 314 313 311 311 309 310 313 313 311 311 312 312 312 312 310 311 315 314 313 318 324 325 323 322 324 326 322 320 319 313 317 326 317 314 323 327 325 318 313 319 323 319 320 317 313 311 310 310 310 311
317 317 317 316 317 316 317 318 317 316 316 317 318 317 316 316 318 319 323 326 321 316 320 321 316 313 313 313 314 312 311 312 313 311 308 309 309 310 313 312 310 310 310 311 314 313 311 311 312 310 312 312 310 315 319 315 314 319 323 323 323 325 324 324 326 326 318 314 321 326 316 314 324 329 326 318 313 317 321 318 317 318 315 312 310 310 311 310
317 317 317 317 318 318 317 318 317 316 316 316 317 316 315 316 319 322 324 324 320 317 318 318 314 313 313 312 312 312 313 314 312 309 310 310 310 309 310 311 311 313 316 314 315 316 312 311 314 314 313 314 314 317 320 318 316 319 323 322 320 325 328 329 336 330 316 318 329 331 323 314 317 326 324 316 315 317 316 315 315 316 317 315 312 311 311 311
317 317 317 317 318 318 317 317 316 316 316 316 315 315 315 317 319 323 323 320 319 318 315 316 314 312 313 312 312 313 314 313 310 310 311 310 311 310 310 312 312 316 319 314 315 317 313 311 314 314 313 316 316 316 318 321 317 319 327 323 317 324 330 331 334 327 317 322 330 327 321 315 315 324 323 318 318 317 314 316 318 318 320 321 319 317 313 312
317 317 317 318 318 317 317 317 315 314 315 315 315 315 317 318 319 322 321 318 320 318 314 315 314 312 313 313 312 313 313 312 310 310 311 310 311 310 311 313 312 314 315 312 314 315 313 315 314 312 312 314 317 316 316 319 317 317 323 319 317 322 322 320 323 322 320 322 320 316 315 315 317 320 319 317 317 317 315 315 316 317 318 319 323 329 326 319
318 318 318 318 317 316 317 316 314 315 315 314 315 316 318 319 320 321 318 317 319 317 314 314 313 312 313 312 312 312 312 312 311 311 311 311 312 310 312 314 313 317 317 314 314 314 315 319 315 313 313 312 316 315 315 320 318 314 315 316 318 320 316 316 319 318 318 320 316 313 313 316 318 318 318 316 313 315 314 311 314 316 315 314 320 331 336 331
317 318 319 318 316 316 316 314 314 315 314 314 316 317 318 320 320 319 317 316 316 315 314 313 313 313 313 312 312 312 313 313 311 311 311 311 312 311 312 314 314 319 320 316 314 314 316 318 314 314 314 312 314 315 318 323 319 315 317 317 319 322 319 318 319 318 319 320 316 312 314 320 319 317 318 316 313 314 313 312 315 315 317 319 322 326 331 332
317 318 319 317 316 316 315 314 314 314 315 316 317 316 319 321 318 317 317 314 313 314 315 314 313 314 314 312 311 311 314 313 311 311 312 311 311 311 311 311 312 316 318 314 314 314 315 316 315 315 313 312 314 316 317 319 317 318 320 317 318 323 325 321 321 325 325 322 318 313 318 324 319 314 316 313 312 314 313 313 313 315 320 322 324 328 328 329
317 318 318 316 315 314 313 314 314 314 316 317 317 317 319 318 316 317 315 313 314 315 315 315 315 314 314 312 312 312 313 312 312 312 312 311 311 311 311 311 311 313 314 313 315 317 316 316 315 314 312 312 313 315 317 317 316 316 315 317 319 319 324 322 316 317 318 318 319 315 317 325 320 315 319 316 314 315 315 316 314 316 321 321 322 327 328 328
318 317 315 314 314 313 313 314 313 314 316 316 317 318 318 316 314 315 313 312 314 314 315 317 316 314 313 312 312 313 313 312 311 312 313 312 311 311 311 311 312 312 313 314 315 316 317 316 313 314 314 311 310 313 316 316 316 317 316 317 317 314 320 325 318 315 314 315 320 316 315 323 321 318 322 319 314 316 317 317 315 315 320 320 321 324 324 322
316 316 314 313 314 313 313 313 313 315 316 316 318 318 316 314 312 311 311 312 314 314 316 317 316 314 313 313 313 312 313 313 311 312 313 311 313 313 310 311 312 311 313 314 313 315 319 318 314 313 314 314 313 314 314 312 310 315 317 316 317 316 317 320 318 319 317 314 320 320 315 318 320 320 322 317 313 317 317 316 316 316 319 320 322 324 323 321
314 315 315 313 313 313 313 313 314 316 316 316 318 318 314 313 311 310 311 312 314 315 316 317 316 315 313 313 313 311 313 314 311 312 313 312 314 313 310 311 312 312 313 314 315 315 318 322 317 312 311 314 315 313 314 314 310 312 314 312 315 318 318 318 317 320 321 318 322 323 316 318 322 321 322 316 313 316 313 314 320 321 319 319 322 325 327 328
313 315 316 313 313 314 313 313 315 316 316 317 318 316 313 311 311 310 311 313 314 315 316 317 316 316 315 313 313 312 313 313 311 312 313 312 312 311 310 310 311 312 313 315 318 316 314 319 320 314 310 312 315 315 316 316 312 313 315 313 313 314 317 320 318 320 323 323 324 320 316 323 326 319 319 316 314 315 313 315 327 333 328 326 326 327 329 328
311 312 314 313 313 313 313 314 315 315 315 316 316 313 311 311 310 310 312 314 315 314 315 316 315 316 315 314 313 312 313 313 311 312 314 312 311 311 311 310 311 312 312 313 317 317 315 317 320 316 313 314 318 317 315 315 314 314 315 314 314 314 318 318 316 318 320 320 324 320 315 322 324 318 316 315 315 316 314 316 328 339 337 333 329 328 328 326
311 310 312 313 312 312 314 314 313 312 313 314 314 311 311 311 310 311 313 313 314 313 313 315 315 315 315 314 313 313 313 313 311 312 314 312 311 313 312 310 311 311 312 315 315 316 319 320 321 318 316 317 318 313 310 314 315 313 314 315 314 315 318 317 317 319 317 315 319 320 316 316 319 320 319 319 319 317 317 321 326 331 330 328 326 326 325 324
310 311 312 312 312 312 313 314 312 312 313 312 311 311 312 311 310 311 313 313 313 313 313 314 314 314 315 314 313 313 313 313 312 312 314 312 311 313 312 310 311 311 312 315 314 315 319 321 321 319 316 318 319 313 310 311 312 313 314 315 314 315 317 320 322 322 318 317 316 315 315 314 317 322 323 324 323 319 318 321 323 323 324 324 324 326 326 326
308 312 313 311 312 312 313 314 314 312 313 312 310 312 313 311 310 312 312 313 313 313 313 314 313 313 314 314 313 314 314 314 314 313 314 313 311 311 311 309 311 311 311 313 314 314 317 318 319 319 317 317 319 317 313 311 311 316 318 316 316 317 315 316 319 317 316 319 318 315 316 317 317 319 319 320 321 320 320 319 318 322 324 325 326 327 330 330
309 313 314 311 311 312 313 314 314 313 313 312 310 313 314 311 310 312 312 313 313 313 313 314 313 313 313 313 314 314 314 315 315 313 314 314 312 311 310 309 311 311 311 315 314 314 319 320 318 319 318 316 316 316 315 315 313 317 321 319 316 316 315 315 317 315 313 318 318 316 315 314 313 313 314 316 317 317 317 315 315 318 320 323 324 325 329 330
310 313 313 312 312 312 311 313 314 313 312 311 310 312 313 310 310 312 312 313 312 313 313 313 313 313 312 313 314 314 315 315 314 314 314 313 314 313 310 310 311 311 315 320 316 316 323 321 315 316 316 314 316 318 318 318 315 314 318 318 315 315 316 319 321 317 315 318 317 315 314 312 312 312 312 314 315 317 318 316 317 318 318 321 323 325 328 328
308 311 312 312 312 311 310 312 314 313 311 310 310 312 313 311 311 311 312 313 313 313 313 312 312 313 313 313 314 313 314 314 314 314 313 314 317 315 311 311 312 313 319 319 314 318 324 318 314 316 315 316 323 323 317 316 315 314 315 316 315 316 316 317 317 314 317 319 315 314 316 314 315 316 314 315 317 322 324 321 319 318 317 320 323 327 329 330
306 310 309 310 312 311 310 311 313 312 311 309 309 312 313 312 311 311 312 314 313 312 312 312 313 313 313 313 314 314 314 314 314 314 313 315 317 315 312 311 311 315 318 315 312 316 319 316 315 314 314 318 323 321 316 315 315 314 315 315 315 316 315 315 314 313 317 316 313 317 321 316 314 316 316 317 318 319 318 317 315 313 314 317 319 323 326 330
303 307 307 309 310 310 311 312 311 311 311 309 310 313 313 312 312 313 314 314 312 312 312 312 313 314 313 313 313 313 314 314 314 313 313 315 316 313 312 312 312 313 314 313 313 315 315 317 316 313 314 316 317 316 316 316 315 314 315 315 314 314 314 313 312 314 316 314 312 318 321 315 313 314 315 316 314 311 312 314 315 314 317 320 321 323 328 333
302 304 306 309 309 309 312 312 310 311 310 309 310 313 313 312 312 313 314 313 311 312 313 312 313 313 313 313 313 313 313 314 314 313 313 314 315 313 312 314 313 312 311 311 311 311 314 317 314 313 315 314 313 313 314 314 316 315 315 314 313 313 313 313 312 313 314 313 312 314 315 313 313 314 314 315 314 312 314 316 317 317 319 320 320 324 331 335
296 297 300 307 310 310 312 312 310 310 310 309 310 313 313 312 313 314 315 315 312 312 312 312 312 313 313 313 314 313 313 314 313 313 313 314 314 313 313 314 314 312 312 313 312 313 317 315 310 313 316 312 311 314 314 312 313 314 315 314 313 312 312 312 312 312 313 312 312 313 313 312 313 314 314 314 315 315 315 317 319 321 321 319 318 324 330 330
295 296 299 307 311 310 311 311 310 310 310 309 309 312 313 313 313 314 314 316 316 315 314 313 312 312 312 313 313 313 314 314 314 313 313 313 313 314 313 313 313 311 312 314 315 316 318 316 312 315 317 312 311 314 315 314 312 312 314 313 311 311 311 311 312 313 312 312 312 312 311 314 318 317 314 315 316 316 317 318 320 322 320 317 318 322 323 323
Wind_Speed
19 19 19 19 24 29 32 31 28 34 41 40 42 42 41 40 38 38 36 35 34 33 30 27 26 26 24 24 24 23 23 18 14 13 13 15 18 14 11 16 13 9 6 7 13 11 5 2 8 13 3 2 3 1 1 1 2 3 2 2 2 3 4 4 6 6 3 4 7 8 7 9 6 3 2 3 6 4 4 5 2 5 5 4 5 21 36 33
19 19 20 20 22 25 29 33 30 30 41 43 42 44 42 42 41 39 37 34 34 32 30 27 25 24 22 23 24 24 23 18 13 15 20 20 17 15 13 15 15 12 7 7 15 17 7 3 9 12 5 2 2 1 1 1 1 3 3 2 4 4 5 5 5 5 3 5 7 7 7 8 8 6 4 4 3 3 6 4 3 5 6 5 12 27 33 32
20 20 21 21 21 22 23 32 32 27 37 45 43 45 44 43 43 40 38 36 34 33 32 29 25 23 21 20 20 20 19 12 9 15 26 25 18 17 15 13 14 13 9 7 13 19 16 6 5 8 4 2 1 1 1 0 1 2 3 2 6 5 4 4 5 5 5 5 7 8 6 7 7 6 4 6 6 5 6 4 2 4 4 7 12 23 29 30
20 20 20 21 22 23 21 27 33 27 31 44 44 44 45 43 44 41 39 38 35 35 33 30 27 24 21 19 18 18 14 4 6 15 25 26 19 18 18 15 14 13 11 12 14 17 17 12 8 6 4 2 2 2 0 2 2 1 3 4 5 3 2 4 4 4 4 4 8 7 6 6 6 4 4 9 8 3 7 8 8 9 11 11 11 19 26 26
20 21 21 21 21 23 22 24 32 30 28 40 45 43 44 44 44 42 40 39 37 36 34 33 30 25 22 20 19 19 13 1 5 15 26 27 23 19 19 19 16 14 15 15 15 16 14 11 10 3 4 2 3 3 2 3 1 1 3 6 5 3 2 6 3 1 1 3 6 7 7 7 4 2 5 12 10 6 7 8 9 12 14 15 15 18 21 22
21 22 22 22 21 22 24 25 31 34 28 36 47 44 44 44 43 44 41 40 39 37 35 35 33 28 23 21 21 19 10 3 0 9 26 31 28 24 20 20 19 16 17 17 13 14 11 7 7 4 2 2 3 1 3 4 1 2 4 3 5 3 3 5 3 2 3 5 7 8 6 6 6 3 6 12 10 5 5 9 10 13 17 20 20 19 18 18
23 23 22 22 22 21 24 25 30 35 29 33 46 44 44 44 43 44 41 41 40 38 37 35 34 29 25 23 21 15 7 6 1 2 16 30 32 29 24 22 22 18 17 19 13 8 6 6 6 5 3 1 2 3 3 5 1 3 3 4 4 3 4 4 3 4 3 7 7 4 4 7 9 5 4 8 8 4 5 10 13 15 20 21 19 17 18 19
25 24 23 22 22 22 23 25 28 34 30 32 45 47 45 45 43 44 41 41 41 38 37 35 34 31 30 26 16 8 6 12 11 2 6 22 32 31 28 25 24 21 18 20 17 10 5 7 6 5 3 2 1 4 4 6 3 2 3 5 4 2 4 4 3 5 2 5 2 5 4 6 8 5 5 8 9 4 4 10 12 14 16 16 15 15 16 18
26 26 24 23 23 22 24 24 25 33 31 31 44 48 45 46 45 45 43 41 41 40 37 35 34 35 34 25 11 6 12 22 18 4 5 17 29 33 32 28 28 25 19 20 21 17 8 4 4 4 3 3 1 3 3 4 2 2 2 5 5 4 5 3 2 4 1 2 4 7 4 3 3 1 3 8 8 3 5 10 11 12 13 13 13 14 16 16
28 28 27 24 25 24 25 24 24 32 34 29 38 46 45 46 46 45 45 42 40 41 38 36 36 37 33 21 11 6 12 26 23 8 4 15 28 33 34 32 31 28 20 18 20 19 9 6 8 6 4 2 1 3 3 3 3 4 2 4 5 5 4 1 1 4 3 0 4 7 4 4 4 2 4 7 5 5 8 10 11 13 14 14 12 12 17 17
30 31 30 27 27 27 27 27 25 31 37 30 31 43 45 45 47 45 45 43 41 42 40 38 39 39 31 16 10 7 6 18 25 21 9 13 30 35 33 33 32 30 23 15 18 21 15 15 15 9 3 1 1 4 6 4 3 3 1 3 5 4 5 2 1 4 2 0 4 7 3 3 4 1 6 6 4 6 10 11 11 13 13 13 13 11 14 17
33 33 32 31 30 30 30 31 29 30 38 35 30 39 45 44 46 46 44 44 42 43 43 42 42 40 27 12 10 10 8 10 19 25 17 16 30 36 32 32 30 30 26 16 15 21 20 22 17 8 3 3 2 3 6 5 3 2 3 2 5 5 5 5 3 2 1 1 4 7 2 3 3 6 8 5 6 7 9 12 11 12 10 10 11 10 10 15
35 35 35 35 33 32 32 34 33 31 36 40 33 34 45 44 44 46 44 44 43 45 46 45 44 39 22 7 10 14 12 10 14 21 21 20 27 32 31 30 27 27 28 24 20 20 23 25 17 8 5 5 3 2 4 3 3 2 3 3 3 4 5 6 3 2 3 2 2 4 2 5 9 11 7 5 7 8 8 10 11 10 9 9 9 8 9 13
36 37 37 37 35 34 34 35 35 33 33 39 38 35 44 46 45 46 43 43 44 46 48 47 43 32 16 5 7 16 14 8 13 22 25 25 26 25 26 26 25 24 24 24 23 20 23 24 16 8 3 3 2 4 6 4 4 2 3 3 2 1 4 5 2 5 5 2 2 4 4 6 9 10 6 6 8 10 9 9 10 9 8 8 8 9 9 11
37 38 38 38 38 36 36 37 37 36 33 36 41 38 43 46 45 44 43 44 44 45 47 46 40 24 8 4 5 16 18 8 16 27 28 30 28 21 21 24 22 21 20 21 23 23 24 20 11 5 1 2 2 4 4 3 3 2 4 3 2 4 4 5 2 7 6 1 3 5 3 6 8 8 6 5 8 10 10 9 9 9 9 9 8 9 8 9
38 39 39 40 41 40 39 39 37 37 37 36 38 39 43 45 44 44 43 42 41 45 41 32 30 20 6 5 6 14 16 11 19 28 31 34 32 24 23 23 19 19 17 18 23 24 22 15 6 3 2 3 3 3 2 2 2 3 4 3 3 4 3 3 2 5 5 2 1 3 3 4 5 6 6 4 10 10 9 9 9 9 9 9 8 8 8 8
41 41 43 44 44 44 41 41 40 40 39 37 38 40 43 44 44 44 42 42 40 42 37 24 23 15 3 4 9 12 13 13 20 27 30 33 33 31 28 19 15 18 14 14 20 18 13 8 3 3 2 2 4 4 3 4 5 4 4 4 3 3 3 2 3 4 4 4 4 4 4 6 6 6 5 2 8 9 9 10 9 9 8 8 8 7 8 9
46 47 48 48 47 46 44 43 44 43 41 39 39 40 43 43 43 41 38 38 33 27 23 18 19 9 3 9 10 12 16 17 21 27 27 25 31 35 29 17 13 17 13 8 12 11 5 4 4 4 4 5 5 6 6 6 5 4 5 5 3 2 4 4 3 3 6 5 5 6 5 10 11 8 5 2 5 8 9 8 7 8 8 8 7 7 8 9
51 52 50 49 49 48 46 47 47 45 43 40 40 42 43 38 35 34 32 30 20 10 7 10 14 6 3 12 11 12 22 24 22 24 24 22 28 29 22 14 12 15 13 7 10 10 5 4 5 7 7 8 8 6 6 5 4 5 6 6 4 2 3 4 4 4 6 5 5 7 7 11 13 9 6 4 3 6 6 5 6 7 7 7 7 8 9 10
53 54 51 51 51 49 49 50 49 48 45 43 44 38 28 22 16 12 14 17 11 3 4 12 16 4 4 10 13 17 23 23 20 18 22 27 29 23 14 11 9 9 11 11 12 9 5 6 8 10 10 9 8 6 7 8 3 2 4 6 6 5 4 4 3 3 3 5 5 8 9 11 10 9 7 4 1 4 7 7 8 7 7 8 9 10 11 12
55 56 53 53 54 51 53 53 51 50 46 48 48 27 13 17 15 12 11 9 10 3 2 16 19 3 1 11 19 22 16 14 14 13 23 31 28 18 9 11 11 7 8 11 10 6 5 9 9 10 10 8 7 7 8 9 4 1 1 4 6 6 5 5 2 3 1 4 5 3 6 10 9 9 6 2 4 7 10 10 9 10 9 8 9 12 12 10
54 56 55 56 55 54 56 55 53 52 47 47 39 17 14 19 18 28 25 7 11 6 1 16 19 3 2 16 26 26 14 8 9 10 21 27 21 14 9 10 12 9 9 10 8 6 7 10 9 9 8 6 6 6 8 8 6 4 1 3 4 4 3 4 3 3 1 3 4 1 4 9 9 9 6 5 7 8 10 12 11 11 10 9 11 12 11 10
47 51 54 56 57 59 58 56 54 52 47 41 28 16 17 14 15 33 24 5 9 6 2 15 15 4 6 16 27 28 15 10 12 11 20 22 14 12 11 12 12 10 11 12 11 9 7 7 9 8 7 8 7 7 7 6 5 4 3 3 3 3 3 3 3 2 1 1 1 2 2 6 7 6 6 8 9 8 9 11 10 9 10 12 12 11 11 12
43 49 53 57 60 59 58 57 52 48 47 40 34 30 21 16 29 41 19 6 6 3 2 12 9 5 8 12 24 26 12 9 12 14 21 19 10 9 11 12 13 11 10 13 13 10 5 4 9 10 9 11 9 8 8 5 3 4 5 5 3 4 5 3 2 1 2 2 2 2 3 5 4 4 7 7 5 7 7 7 9 8 10 10 8 8 11 13
45 51 55 59 59 59 61 52 42 46 46 34 34 36 24 26 42 41 18 5 5 3 1 6 3 6 10 11 19 18 9 5 7 13 20 19 14 10 8 8 9 10 12 12 10 7 5 4 10 11 10 12 10 9 8 5 4 3 5 7 6 6 6 3 4 5 3 3 2 1 1 5 4 4 8 5 2 7 6 6 10 10 10 9 8 10 12 12
51 53 57 59 58 64 55 32 35 49 37 24 32 35 29 35 41 33 15 3 3 4 5 8 6 10 13 10 11 11 9 4 4 13 19 18 17 11 8 6 4 8 12 9 5 3 5 5 9 12 11 12 11 9 8 6 5 3 4 7 5 6 6 6 6 5 3 4 2 2 4 5 5 4 7 4 4 8 5 6 10 10 9 9 10 12 12 11
53 54 60 59 61 64 37 17 39 46 22 21 37 36 35 41 35 23 10 1 4 6 7 8 6 11 14 10 13 13 8 6 6 10 15 16 15 9 9 11 6 6 8 6 3 3 6 7 8 12 11 10 10 9 8 7 6 4 4 7 7 6 7 7 7 4 2 3 2 4 3 3 4 5 6 2 4 9 7 8 10 10 11 11 12 13 11 11
53 56 62 59 65 66 41 30 39 32 24 36 43 39 41 41 27 13 6 5 5 5 6 6 5 9 9 8 12 8 5 12 11 7 11 12 10 5 8 12 9 11 10 9 7 2 6 10 10 13 10 8 9 8 8 8 6 5 4 7 6 5 6 6 6 3 1 1 3 4 1 2 5 6 5 3 2 7 8 9 10 10 12 12 12 12 12 12
54 58 63 61 67 66 49 43 39 35 44 51 47 44 40 30 16 6 5 6 3 4 7 7 5 5 7 9 9 5 6 10 7 5 6 7 4 3 7 8 8 13 8 5 7 2 2 8 9 12 9 7 8 6 8 10 7 4 5 6 4 4 4 4 4 4 2 1 4 6 3 2 5 5 4 2 2 6 8 9 9 9 10 10 11 12 12 11
56 58 65 63 61 53 38 34 39 46 53 54 52 46 31 16 10 7 9 5 3 4 6 6 6 9 14 14 7 7 11 6 4 8 6 3 1 3 3 4 6 8 3 3 5 2 1 0 2 6 5 5 7 5 5 9 7 6 7 6 6 5 4 3 2 3 2 3 6 7 5 4 4 5 4 4 5 6 7 8 8 8 8 9 9 9 10 8
59 59 67 62 53 46 28 16 31 48 55 58 54 38 20 8 6 9 8 4 3 5 5 5 8 14 20 18 10 10 11 6 8 12 8 4 3 3 4 4 3 5 3 3 2 2 3 2 1 2 2 3 6 4 1 2 5 7 5 4 4 3 3 3 4 2 2 5 6 5 3 4 5 5 5 6 6 6 7 7 9 9 8 7 7 8 8 8
59 59 65 61 51 47 32 21 36 53 58 58 43 21 11 6 7 8 6 4 5 6 7 9 11 15 18 16 11 11 11 8 11 14 13 10 7 8 10 9 7 6 6 8 5 1 1 1 2 1 1 3 6 5 2 1 2 5 5 6 4 0 1 2 2 1 3 5 4 2 1 3 5 7 8 9 9 9 9 9 9 9 8 7 8 8 7 6
57 61 61 56 50 42 36 38 48 55 56 48 26 9 8 9 8 8 7 4 5 8 10 12 15 19 21 15 10 9 9 9 12 14 12 11 9 8 6 6 8 7 5 7 6 4 1 4 3 0 1 2 6 6 4 2 3 5 6 7 6 3 4 6 4 1 4 5 3 2 2 3 4 5 10 13 13 13 10 8 8 8 8 8 8 7 6 5
53 59 54 49 46 37 37 46 53 59 53 32 13 8 11 11 8 11 10 6 6 10 13 15 17 19 17 12 12 12 8 7 12 13 10 9 8 8 5 6 8 5 5 5 5 6 6 3 3 3 1 1 3 4 5 6 5 4 5 6 6 5 5 6 4 3 4 3 2 2 1 3 3 4 8 11 11 10 8 7 7 7 8 6 6 6 6 6
52 53 49 42 36 34 43 51 57 63 46 18 9 10 11 11 9 10 11 8 7 10 13 15 17 17 11 6 9 10 5 5 11 12 10 10 10 11 10 10 10 7 7 8 4 5 8 4 3 2 1 2 2 2 2 7 6 3 2 5 5 6 5 3 3 4 4 1 2 2 3 4 4 6 8 6 6 7 8 7 6 7 7 4 5 6 6 6
53 45 39 33 31 38 50 55 60 59 34 12 10 9 8 9 10 12 12 12 14 15 18 16 14 14 10 5 8 5 3 6 11 9 8 10 11 12 12 8 8 8 9 9 3 3 8 3 4 2 1 2 3 2 1 3 5 2 3 5 5 4 7 4 2 1 4 2 3 2 3 5 3 6 9 4 4 6 8 8 7 6 6 5 5 7 6 6
47 37 23 20 33 47 51 56 60 47 22 10 11 10 9 9 10 13 14 16 19 20 21 16 11 12 11 8 9 8 6 8 9 7 6 8 8 11 12 7 7 10 9 7 3 2 6 2 3 1 2 1 1 1 1 1 3 5 4 6 3 3 3 3 2 1 2 4 4 1 3 4 2 3 6 6 5 6 8 8 6 5 5 5 7 8 7 7
25 27 14 15 40 53 53 59 54 30 12 10 12 13 10 7 7 11 12 16 19 18 17 13 10 13 13 12 11 12 14 11 9 9 8 7 6 10 15 10 7 11 9 7 5 2 5 3 3 1 2 2 3 3 2 2 1 4 4 3 4 3 2 1 3 3 2 4 4 3 3 4 4 4 4 4 5 7 7 6 6 6 6 6 8 8 8 7
10 13 7 19 46 55 58 58 37 15 10 11 12 11 7 4 6 14 16 18 17 16 15 13 12 12 14 17 17 17 17 15 14 12 9 9 7 9 17 11 5 11 10 8 7 3 4 5 1 2 1 1 3 2 5 3 1 2 1 0 2 3 4 3 3 4 3 4 3 3 3 4 6 6 5 7 9 9 7 5 6 7 7 7 7 7 7 6
5 3 5 26 46 54 61 49 21 10 11 11 11 9 7 5 8 17 23 21 16 11 13 15 14 13 14 16 16 16 13 13 16 13 8 10 6 5 13 12 8 11 8 6 6 4 3 4 3 2 2 2 2 2 6 6 4 2 2 3 2 1 2 2 2 3 4 4 3 2 4 6 6 5 8 10 11 10 7 5 6 6 6 7 6 5 5 5
5 2 5 31 48 51 49 27 9 11 9 8 11 8 7 6 8 18 23 21 14 4 6 15 15 13 14 15 14 13 10 9 13 10 4 8 8 3 10 13 12 12 8 5 6 5 2 3 5 3 1 3 3 3 4 6 5 4 4 6 6 3 4 4 4 2 2 3 4 3 6 9 5 5 8 10 10 9 7 7 6 5 5 6 5 5 6 5
9 2 7 34 49 45 31 11 7 11 6 7 10 6 5 7 10 18 19 17 13 5 5 11 11 11 11 12 14 14 11 9 13 12 4 8 11 5 6 11 13 13 9 5 4 4 3 5 5 2 3 5 4 1 4 4 2 3 2 4 5 4 5 6 6 3 1 3 3 3 5 7 5 7 8 8 7 7 6 7 5 5 6 6 6 6 6 6
8 4 12 38 50 37 18 8 9 7 4 7 8 4 4 6 12 17 16 15 12 8 8 9 9 11 8 8 12 13 11 8 11 11 4 5 8 5 9 15 15 14 9 5 5 4 3 5 4 1 2 3 4 2 2 2 2 2 3 2 4 4 3 5 5 4 3 5 4 2 5 6 4 6 6 5 3 4 3 4 5 6 6 5 6 6 6 6
4 3 10 32 49 36 14 10 11 7 6 9 8 4 1 5 12 16 17 17 11 9 11 11 12 13 9 10 13 15 15 9 8 9 4 5 6 6 13 19 17 15 9 6 8 6 2 3 4 3 2 2 3 3 2 2 2 3 3 2 4 4 4 3 2 3 4 7 8 5 8 6 2 1 1 1 2 4 6 5 6 6 6 5 5 5 6 6
4 5 5 14 30 26 9 6 11 11 11 14 14 9 5 8 12 16 19 16 9 11 12 10 14 14 11 13 13 14 15 7 6 8 4 5 4 3 14 21 19 16 10 8 11 7 4 4 4 6 6 7 8 6 5 4 3 1 2 4 6 6 6 4 3 3 7 6 9 9 9 3 3 2 2 2 2 5 8 5 4 6 5 5 5 5 5 5
4 5 5 6 10 12 4 0 7 10 11 14 12 8 9 11 9 13 18 10 5 10 10 7 12 11 11 15 13 12 14 6 6 8 6 8 5 2 12 20 18 16 12 14 15 9 4 4 6 10 11 11 9 6 5 10 8 7 7 7 7 8 8 5 4 6 6 5 7 12 7 1 1 3 6 6 6 7 8 4 3 5 5 5 5 5 5 5
1 2 6 8 7 8 3 1 7 10 10 13 9 6 12 14 10 10 11 6 7 12 8 7 13 12 13 18 14 13 15 8 7 12 11 9 5 3 9 15 15 17 15 14 14 9 5 5 11 14 13 9 6 5 8 13 13 12 10 10 10 9 9 10 9 8 6 5 8 6 5 6 7 5 7 8 7 7 6 5 4 5 5 5 5 5 5 6
0 1 5 7 7 10 7 5 12 13 13 14 7 4 11 16 16 13 7 5 12 15 9 7 15 18 19 20 15 12 14 9 7 12 12 8 6 6 8 8 9 14 16 12 10 8 6 8 11 11 9 4 5 8 11 12 11 10 12 14 14 13 14 16 15 7 8 9 11 4 8 12 9 6 9 9 7 6 5 6 6 5 5 4 4 4 5 6
1 2 2 1 2 7 8 12 17 17 17 15 7 5 12 17 18 13 5 7 13 14 14 13 17 21 22 20 15 13 15 13 12 13 13 12 11 11 10 6 3 6 11 11 7 4 5 6 6 8 6 2 3 8 11 11 9 9 12 15 16 17 19 18 16 10 8 15 13 3 7 12 6 8 10 7 5 3 3 5 5 4 6 5 3 3 4 6
1 1 2 1 2 4 7 10 15 15 14 13 9 7 11 17 20 11 4 11 17 15 18 22 22 22 23 22 18 17 20 19 17 15 14 14 13 10 9 7 4 3 5 8 6 2 2 4 3 7 6 0 2 4 7 8 9 10 11 15 18 19 19 17 14 10 9 15 13 8 13 12 5 6 7 6 4 3 5 8 6 6 7 5 5 6 6 6
2 1 2 3 4 8 10 10 12 12 11 11 10 8 11 17 20 12 2 5 13 15 18 25 25 19 18 21 20 21 21 19 18 18 17 17 15 10 7 6 8 9 5 5 5 2 4 3 2 6 6 3 1 5 5 5 5 5 11 18 19 17 15 13 11 10 12 14 11 10 14 11 4 4 4 4 4 5 8 9 6 6 5 2 5 7 7 7
1 2 2 2 4 9 11 10 11 11 11 11 10 7 9 15 17 15 7 1 3 9 12 18 21 15 14 20 21 18 16 14 13 13 12 13 12 7 7 9 14 15 10 7 4 3 6 6 3 6 7 4 2 6 7 7 4 6 13 17 18 15 12 9 9 12 15 13 10 12 12 5 4 5 6 6 8 9 9 8 6 6 5 4 6 7 8 9
Wind_Direction
238 236 234 240 238 235 239 238 233 219 209 207 205 202 200 198 198 199 198 198 199 199 199 199 200 201 202 205 210 213 210 203 207 207 207 223 219 215 211 201 196 186 165 138 162 157 75 353 349 356 330 95 35 18 52 337 59 69 95 136 216 192 195 192 180 197 176 198 204 196 177 146 154 171 150 60 53 82 89 36 18 9 15 168 162 155 160 166
243 239 236 240 238 233 238 238 236 227 213 207 206 203 201 198 199 199 198 197 196 196 194 191 192 192 194 199 206 215 213 206 212 217 219 224 220 217 212 200 201 203 190 129 150 152 108 354 344 353 340 56 8 346 58 282 91 115 131 153 221 198 209 201 182 211 201 205 191 172 171 158 164 164 139 125 139 141 109 34 8 48 43 98 134 148 157 165
246 244 239 237 236 232 237 238 237 236 217 207 206 204 201 199 199 199 198 197 195 193 189 185 183 179 181 186 190 201 198 197 221 229 226 223 219 215 204 194 197 204 194 136 136 141 139 144 19 7 348 36 19 355 43 199 178 166 140 185 236 213 239 228 185 220 238 211 171 166 174 167 172 160 136 143 160 175 159 167 156 137 133 125 139 149 156 165
244 245 244 236 236 235 237 238 234 237 223 208 205 204 202 199 198 198 197 196 194 193 190 186 182 174 171 171 173 175 165 174 243 228 224 216 209 207 201 197 193 197 180 138 124 131 136 123 83 20 351 24 351 4 15 224 201 171 154 198 232 190 250 256 209 240 261 206 175 162 145 162 183 158 138 139 141 219 215 197 181 167 159 148 151 154 159 167
243 243 247 241 239 239 239 240 230 232 231 212 205 204 201 199 197 197 197 195 194 193 191 189 186 181 176 173 169 158 140 161 238 215 220 213 203 201 200 201 195 189 172 144 120 123 129 108 101 57 356 27 5 19 274 265 149 161 216 213 223 162 220 271 260 274 318 139 149 146 151 165 165 132 155 157 165 215 213 197 180 161 158 157 158 158 163 170
244 243 246 246 245 246 244 245 233 231 237 217 205 204 201 199 197 196 196 196 193 193 192 190 188 186 183 176 169 163 159 215 205 201 214 208 201 202 200 200 197 188 170 155 126 116 122 95 111 123 33 20 353 309 260 302 131 210 273 243 241 205 212 280 303 354 61 126 159 168 174 144 133 160 182 178 190 206 173 166 166 162 162 159 157 160 167 175
246 244 245 248 247 249 248 247 238 232 239 222 206 203 202 199 197 195 195 195 192 191 190 188 187 185 180 173 171 179 198 237 283 120 201 200 198 201 199 197 196 189 173 158 134 114 118 101 122 124 93 96 301 267 280 324 315 196 260 295 287 222 213 269 301 342 71 165 194 159 136 145 162 176 164 197 221 227 174 156 158 161 158 156 158 167 174 179
245 244 242 246 246 248 247 246 241 232 239 230 209 203 201 199 197 195 194 193 190 188 187 185 184 182 178 171 171 194 214 225 222 137 157 188 194 195 192 191 193 187 175 168 155 149 129 106 125 106 105 175 315 303 302 331 346 145 245 291 317 260 253 292 310 331 70 173 186 112 147 185 186 166 148 210 234 239 170 145 150 154 154 162 169 174 177 181
245 245 240 243 245 247 248 248 244 232 236 232 209 200 200 198 197 195 192 191 188 187 186 185 184 182 179 170 170 207 211 210 205 169 126 178 188 189 185 184 189 186 173 175 169 160 152 128 135 105 128 165 21 303 321 353 324 175 245 277 290 273 271 305 314 306 317 151 130 139 182 246 231 200 184 217 222 196 128 141 150 153 162 173 176 178 179 182
244 246 243 244 248 250 250 248 245 236 234 233 210 199 198 197 196 194 192 190 188 187 185 184 183 179 174 169 179 208 215 209 204 197 158 176 183 183 184 183 184 184 171 171 171 164 167 158 141 114 107 110 80 280 323 354 255 210 225 291 285 277 276 293 206 279 307 38 155 153 182 266 304 331 219 229 206 136 122 148 160 160 174 180 180 184 182 185
243 246 244 244 252 254 252 247 245 238 231 231 217 202 198 196 196 194 193 191 188 186 184 183 180 174 171 174 194 200 202 209 214 217 203 182 184 181 184 184 181 179 169 164 171 173 170 147 131 109 88 83 24 308 295 266 250 221 169 332 311 324 311 288 189 257 295 44 168 135 126 296 344 318 225 222 171 139 136 154 170 173 181 184 183 186 185 192
243 244 245 247 252 255 253 248 245 240 229 227 225 207 198 195 194 192 191 189 188 187 183 181 178 172 169 183 210 207 200 206 216 214 206 191 186 183 184 184 181 180 172 161 168 178 168 146 130 110 126 123 71 324 288 263 271 240 165 275 303 354 323 255 204 234 179 198 192 131 95 295 253 228 228 202 157 143 146 160 176 183 186 187 186 186 191 196
245 244 248 250 252 254 252 248 244 243 233 227 229 213 197 193 193 191 189 189 189 185 181 178 176 170 166 194 219 208 213 228 218 202 195 188 182 181 183 186 186 185 182 171 171 179 165 150 140 124 126 109 122 234 304 296 260 241 164 207 278 358 313 247 200 170 157 208 222 139 193 255 236 233 227 193 160 141 152 171 179 186 188 190 189 190 198 198
246 244 246 248 251 255 250 246 242 241 237 228 231 222 198 192 192 190 188 188 187 183 179 176 173 169 171 196 208 204 214 236 208 187 181 178 172 173 178 184 187 186 184 171 166 171 161 151 139 112 96 109 175 282 321 302 246 214 165 189 212 204 274 270 189 150 162 214 77 122 209 252 248 245 228 194 168 154 168 182 185 190 191 191 193 195 202 202
249 246 246 247 250 254 249 242 237 236 237 227 228 223 197 189 191 188 187 184 184 182 176 173 172 165 174 216 203 205 208 205 190 185 180 173 163 162 170 173 178 177 174 165 160 161 157 151 135 109 103 137 210 285 296 273 262 210 190 206 199 190 262 299 188 163 170 210 92 127 207 266 265 263 259 200 177 173 177 187 191 193 194 194 198 200 205 211
251 247 246 248 249 252 247 237 229 229 231 224 222 215 194 188 188 185 185 180 181 181 170 168 172 163 165 204 172 188 193 186 190 187 180 175 167 162 161 158 164 169 166 162 158 154 153 151 136 131 137 145 185 217 246 280 275 237 209 208 200 186 242 306 247 204 184 136 133 170 211 263 268 284 299 206 185 188 182 192 198 194 200 197 198 204 205 212
252 248 248 249 247 246 242 232 224 220 223 220 215 206 192 188 185 182 183 179 179 176 167 167 169 160 156 160 155 179 185 182 188 182 174 176 172 162 152 145 161 168 155 150 153 152 156 159 141 138 148 182 189 173 204 231 225 228 205 207 227 190 200 251 270 243 189 164 195 202 220 246 262 294 317 190 179 193 194 196 199 198 204 202 201 207 207 209
255 252 249 246 243 239 235 228 219 216 216 210 208 200 187 184 179 176 177 172 169 162 159 164 157 151 238 190 177 175 173 174 176 173 170 175 172 161 150 145 155 153 136 132 154 160 175 171 155 168 183 199 203 187 195 209 197 190 187 199 235 204 201 216 237 217 172 180 199 189 232 255 262 283 299 251 169 189 209 203 203 208 206 206 205 209 213 213
261 256 247 240 235 232 229 222 214 212 208 203 202 192 178 175 173 172 169 158 153 151 148 164 166 172 215 184 178 157 166 172 167 167 166 164 160 150 140 143 150 149 146 152 172 180 174 143 170 194 200 202 204 193 196 211 182 173 183 186 200 208 228 221 237 239 170 166 206 194 219 244 250 266 272 266 174 181 227 232 221 221 213 212 210 213 217 216
261 254 243 234 228 225 222 215 210 206 201 197 194 185 170 165 164 169 165 156 166 175 130 167 179 178 70 153 158 145 156 162 158 164 162 156 150 136 129 144 152 162 163 161 171 181 171 168 193 199 198 201 195 175 195 220 215 175 171 181 207 217 245 242 239 277 157 156 225 211 221 243 249 261 263 259 192 197 233 238 232 229 219 217 214 218 219 218
253 245 236 226 220 218 214 208 205 200 197 194 187 182 172 168 170 163 151 168 189 164 110 175 176 193 35 157 153 140 137 146 153 165 160 153 146 137 148 160 158 175 170 157 157 153 175 196 202 196 190 192 187 177 199 219 224 250 167 176 217 218 239 259 245 292 122 168 244 227 229 254 256 258 262 192 183 221 224 222 227 223 219 221 221 224 224 227
243 236 226 217 212 209 204 201 200 194 192 192 187 184 178 181 183 163 150 155 180 155 356 179 176 234 165 150 151 143 126 131 150 169 164 156 152 153 168 170 166 168 153 148 151 152 195 210 196 181 178 183 200 200 208 220 210 211 176 150 214 223 243 287 287 301 56 178 252 212 210 252 258 253 247 188 199 229 223 215 221 217 214 218 220 224 227 231
229 220 209 204 200 197 196 195 193 188 187 190 188 183 182 195 179 152 137 82 156 135 348 184 184 221 156 150 156 151 141 154 159 178 176 165 164 163 163 172 170 162 157 165 173 174 195 207 181 168 172 188 213 225 224 231 212 197 170 157 220 219 192 245 260 267 59 110 204 150 228 269 273 276 259 221 213 234 234 223 227 221 216 219 219 221 220 221
210 200 194 191 189 189 190 187 185 184 187 192 187 183 185 183 163 150 128 46 143 142 239 188 185 198 177 158 162 160 152 162 159 170 177 170 160 152 161 171 165 165 175 176 176 179 193 173 158 165 183 194 210 229 225 223 223 217 190 182 213 202 190 204 195 128 29 1 84 98 349 303 273 270 260 241 219 242 250 239 244 241 230 233 238 235 224 220
195 188 185 182 183 183 181 179 179 181 186 194 185 177 175 168 162 153 130 74 159 158 189 179 189 220 198 163 165 163 136 142 161 164 173 172 158 147 160 170 168 176 178 174 170 182 216 186 156 167 187 195 207 227 221 194 202 246 213 197 195 182 174 157 132 93 59 301 294 132 274 292 299 267 250 263 280 253 245 229 241 244 238 237 238 237 230 225
186 182 179 178 179 177 173 173 180 180 183 194 180 169 166 166 162 152 128 68 191 157 158 164 169 206 195 166 157 143 126 156 162 154 165 173 166 153 155 164 177 179 169 167 167 178 211 191 165 175 186 191 204 225 219 183 180 245 230 197 171 138 133 138 145 112 126 224 289 89 168 252 316 298 253 278 295 264 253 238 245 245 239 231 226 231 229 225
181 179 175 176 175 172 169 171 177 179 183 186 176 167 165 167 164 156 136 286 205 156 154 156 160 190 186 175 159 145 153 156 120 153 171 172 166 153 163 170 166 169 157 153 189 199 174 172 177 180 181 191 201 215 213 179 174 231 224 170 141 130 148 159 157 149 181 209 336 28 131 213 288 276 262 303 300 282 282 258 254 246 239 233 228 232 230 224
180 176 174 174 173 172 173 170 170 181 190 178 171 167 171 171 166 162 169 205 180 125 137 154 180 183 166 167 166 149 145 140 132 182 186 168 164 141 171 181 163 161 164 169 189 213 152 173 188 178 178 197 198 202 194 174 190 230 195 156 150 151 159 155 145 142 92 113 297 304 132 184 264 276 296 340 293 285 286 260 253 246 240 237 233 233 231 225
178 175 174 172 172 174 175 170 171 185 185 175 168 169 173 170 154 149 200 200 139 113 143 146 168 174 142 157 170 135 129 142 141 164 160 167 173 101 166 180 149 154 165 169 177 194 159 183 187 173 180 198 190 195 182 176 200 205 137 115 94 84 86 101 122 116 77 126 240 248 197 187 267 280 297 316 260 262 268 263 257 249 241 238 235 235 234 230
175 173 173 169 171 175 173 171 176 177 173 167 164 164 165 153 139 170 204 189 114 148 156 132 155 170 160 160 162 141 143 141 118 125 131 162 88 49 124 115 107 142 117 59 152 208 329 176 176 166 182 185 167 172 179 182 180 136 106 84 68 52 45 48 65 97 132 251 250 239 210 194 259 275 246 229 223 218 231 260 272 270 264 250 241 242 239 233
173 172 171 169 172 174 167 168 169 161 157 157 155 154 152 142 162 185 187 157 103 141 144 134 160 169 166 163 157 150 144 124 131 142 151 162 126 94 129 120 101 123 102 101 165 315 14 95 178 163 175 139 125 119 97 204 172 128 102 98 93 16 15 26 1 42 197 247 258 250 217 187 228 260 242 233 245 227 214 238 261 267 273 267 258 253 241 232
172 171 171 172 173 173 173 172 160 152 149 150 148 146 147 154 189 182 158 148 151 155 155 160 169 168 166 162 153 149 144 140 153 158 161 164 165 168 168 177 172 149 170 182 173 54 49 216 266 323 242 147 135 140 82 16 176 137 118 129 139 29 37 208 265 256 224 246 262 263 218 210 233 248 250 253 259 249 225 220 238 254 269 280 277 266 254 241
171 172 172 173 173 175 176 167 158 154 149 146 145 148 158 172 184 150 127 158 169 157 160 165 168 165 162 159 152 144 138 148 163 163 161 158 164 182 191 188 167 151 170 168 142 142 199 297 304 317 282 185 156 165 160 166 176 151 145 155 168 159 163 206 226 253 248 255 279 271 241 254 269 258 247 243 246 250 244 229 232 246 261 274 278 276 278 269
171 172 172 172 172 176 170 159 156 154 149 145 146 158 174 183 164 135 145 173 162 152 161 163 161 162 162 157 156 150 132 150 165 157 154 154 161 185 212 206 182 137 111 140 152 167 179 238 240 176 225 246 167 183 166 148 156 183 162 149 167 169 170 200 201 193 225 256 288 269 227 199 196 244 244 236 248 265 270 254 243 256 268 278 288 285 282 277
172 172 172 170 171 172 164 158 155 152 148 147 158 168 185 178 147 147 160 160 150 150 157 158 154 156 159 146 154 155 125 154 165 154 159 170 175 185 190 196 189 150 135 164 180 173 173 206 279 259 256 135 154 239 144 130 159 221 138 135 187 184 153 159 186 174 165 171 255 224 232 213 206 273 274 247 257 275 277 274 270 271 279 302 302 279 265 264
171 173 175 169 168 165 162 159 155 151 149 151 161 175 203 182 162 165 163 157 159 154 150 157 159 156 155 145 155 156 75 137 158 157 172 180 185 190 188 190 186 171 164 160 147 166 165 183 312 330 14 88 143 231 290 147 175 172 132 185 211 163 129 132 201 135 105 177 248 204 252 290 316 295 295 310 302 289 280 275 269 265 280 305 286 265 261 263
169 168 171 170 169 164 161 159 155 152 150 154 166 183 201 197 173 161 159 158 159 155 151 156 167 162 154 150 159 155 124 130 156 167 173 181 194 194 190 194 183 181 183 154 136 194 151 123 328 64 110 299 104 127 352 359 145 140 179 204 177 109 109 119 171 10 82 218 266 274 230 278 309 271 310 342 328 293 276 274 283 277 268 267 259 255 256 256
163 157 162 176 169 164 161 158 154 150 150 164 183 190 193 202 160 139 145 151 151 154 155 155 166 168 159 156 161 161 151 150 171 175 166 183 219 196 186 193 180 178 184 156 150 200 134 114 322 358 157 268 359 95 149 319 142 154 195 190 127 153 201 139 171 190 181 215 274 305 258 251 210 217 284 288 261 261 266 286 303 277 241 234 249 259 264 265
144 149 165 172 166 161 158 155 150 148 161 176 192 189 182 199 154 139 142 149 151 156 161 163 166 169 170 166 162 166 167 165 171 173 173 187 217 201 184 185 172 176 182 161 157 183 127 123 242 288 220 249 13 99 181 210 27 86 80 107 101 152 179 177 170 162 170 203 242 292 291 252 219 210 223 248 259 253 243 268 281 259 235 224 237 254 268 274
160 164 153 166 166 159 153 151 148 162 176 186 188 177 175 187 159 149 151 154 158 166 169 168 166 167 173 170 162 165 170 166 168 174 181 181 189 211 190 180 163 170 172 141 142 158 126 118 169 269 339 155 177 211 188 175 164 155 159 183 199 81 122 163 179 135 139 178 191 242 273 257 236 203 193 218 250 249 229 234 254 253 241 238 246 260 274 283
178 292 154 166 166 155 148 146 154 172 185 191 176 175 182 170 145 153 156 154 156 170 166 165 170 169 167 166 163 165 160 153 170 177 173 178 180 213 199 177 157 158 153 132 147 165 160 126 145 162 154 183 221 251 186 175 177 169 179 191 186 147 125 172 223 203 112 178 179 181 254 259 240 199 197 207 230 241 224 214 242 268 263 258 269 267 265 275
168 229 161 165 163 151 144 147 171 177 199 180 170 176 161 143 146 156 156 155 155 142 137 161 171 168 166 168 164 165 159 152 174 180 168 182 182 185 179 155 147 154 150 140 158 155 119 103 111 150 195 207 238 224 157 170 142 127 209 203 178 169 152 166 209 219 186 221 165 133 264 264 201 182 204 211 221 236 214 194 227 273 272 272 287 286 281 278
164 164 150 161 159 148 140 158 171 186 200 167 177 197 152 151 160 155 153 160 160 144 147 159 164 164 170 167 158 163 164 155 174 177 136 154 180 182 157 143 144 156 151 143 161 154 119 105 98 48 311 307 314 5 84 91 97 165 240 189 168 201 158 148 187 183 195 217 161 129 264 256 180 175 192 199 228 275 254 200 221 257 271 278 286 292 295 294
166 145 141 161 160 152 151 174 173 178 169 166 186 210 170 155 163 158 158 165 163 153 156 160 165 168 166 161 162 171 171 162 178 179 130 135 178 174 156 152 154 165 171 178 171 163 158 132 116 117 83 8 330 324 278 220 154 191 223 178 182 174 107 113 148 128 217 209 164 182 244 250 268 264 176 113 347 297 275 240 221 238 265 283 289 295 295 302
177 146 129 164 162 157 164 182 168 166 165 170 182 190 166 155 172 169 161 161 163 157 157 161 165 162 154 156 162 174 176 166 164 168 129 130 155 158 161 162 166 173 179 169 153 140 152 162 136 136 156 186 196 210 215 178 142 207 200 189 197 179 165 168 131 174 229 196 161 203 237 271 341 310 216 231 259 255 262 259 230 236 260 283 291 295 291 296
184 153 137 152 161 165 177 113 155 160 164 170 180 191 164 155 175 172 157 155 165 153 145 144 147 142 148 155 153 171 180 160 130 151 142 142 148 179 174 170 172 177 167 151 148 136 125 169 176 177 189 196 192 191 146 130 151 201 189 177 192 194 184 157 142 206 203 145 195 226 223 189 281 223 209 222 223 234 253 262 265 276 286 281 270 269 273 277
198 191 157 145 148 167 172 53 152 161 170 173 180 196 168 155 159 170 167 167 154 144 128 129 145 147 158 159 154 171 176 156 139 158 158 154 137 116 170 175 178 174 158 151 158 141 113 190 199 195 201 195 166 160 148 150 175 189 176 181 195 194 185 185 205 206 138 148 227 217 157 204 237 226 217 217 214 232 245 233 232 251 257 247 239 248 255 259
193 168 162 148 149 167 179 178 167 167 177 181 185 188 169 159 159 170 185 168 153 149 133 140 161 163 165 165 159 164 166 153 154 163 159 157 138 122 157 186 193 174 160 162 175 156 150 198 199 187 199 197 144 155 163 164 175 176 177 192 198 196 198 206 217 195 134 206 235 154 164 217 220 211 225 218 209 220 229 225 219 220 233 223 197 208 230 245
166 115 153 98 121 160 166 166 165 168 178 185 191 178 169 167 167 168 159 146 159 161 149 156 172 169 166 166 156 157 169 167 171 175 168 163 159 150 157 178 211 180 163 166 184 180 170 195 182 153 168 192 136 165 172 162 158 175 192 199 199 204 208 211 218 205 191 233 246 224 240 248 210 197 228 237 231 228 248 268 280 290 299 317 334 306 281 265
217 135 152 114 76 119 119 139 158 167 179 189 198 189 174 171 170 166 154 161 168 169 160 164 173 171 167 166 162 172 183 177 171 173 163 155 159 161 165 172 164 150 156 164 179 202 155 179 157 125 139 175 68 149 172 162 161 179 203 212 209 210 213 215 219 210 217 245 254 267 274 270 217 186 219 245 271 299 283 282 291 291 299 319 315 301 290 274
258 272 185 158 143 143 139 146 159 167 180 192 199 194 180 177 171 158 130 180 170 170 172 168 166 165 164 169 175 181 181 173 166 166 161 159 167 172 172 171 153 145 145 159 166 123 95 129 96 108 146 235 221 136 142 122 129 195 226 223 214 210 211 214 214 203 213 234 242 254 263 257 203 155 167 197 217 230 247 256 263 271 281 284 271 273 270 267
276 294 243 170 126 151 158 154 158 171 188 195 196 196 182 180 172 154 134 12 156 159 161 156 153 153 162 177 185 180 169 160 155 158 156 153 154 148 139 149 153 152 154 155 152 126 123 133 129 136 165 230 218 144 130 97 92 251 243 218 206 208 206 207 222 219 217 220 218 232 244 229 148 155 163 187 206 211 226 232 230 252 255 228 236 249 255 256